AirNav   ATP
 
 1564 users online  

C44 Toutant Airport
Putnam, Connecticut, USA

GOING TO PUTNAM?


FAA INFORMATION EFFECTIVE 19 JULY 2018

Location

FAA Identifier: C44
Lat/Long: 41-57-20.5000N / 072-03-15.7000W
41-57.341667N / 072-03.261667W
41.9556944 / -72.0543611
(estimated)
Elevation: 770 ft. / 235 m (estimated)
Variation: 15W (1985)
From city: 6 miles NW of PUTNAM, CT
Time zone: UTC -4 (UTC -5 during Standard Time)
Zip code: 06282

Airport Operations

Airport use: Open to the public
Activation date: 01/1971
Control tower: no
ARTCC: BOSTON CENTER
FSS: BRIDGEPORT FLIGHT SERVICE STATION
NOTAMs facility: BDR (NOTAM-D service available)
Attendance: IREG
Wind indicator: yes
Segmented circle: no
Lights: FOR LGTS CALL 860-974-2099.

Airport Communications

CTAF: 122.9
WX AWOS-3 at LZD (11 nm SE): 119.125 (860-779-7251)
WX ASOS at IJD (14 nm SW): 133.675 (860-456-8839)

Nearby radio navigation aids

VOR radial/distance  VOR name  Freq  Var
PUTr284/9.4PUTNAM VOR/DME117.4014W
ORWr008/24.1NORWICH VOR/DME110.0014W
CEFr139/25.5WESTOVER VORTAC114.0014W
HFDr062/29.0HARTFORD VOR/DME114.9013W
PVDr310/31.2PROVIDENCE VOR/DME115.6014W
BAFr127/32.0BARNES VORTAC113.0014W
GDMr194/35.4GARDNER VOR/DME110.6014W
GONr014/37.5GROTON VOR/DME110.8514W

 
NDB name  Hdg/Dist  Freq  Var  ID
FITCHBURG215/38.136515WFIT ..-. .. -

Airport Services

Parking: tiedowns
Airframe service: NONE
Powerplant service: NONE

Runway Information

Runway 17/35

Dimensions: 1756 x 60 ft. / 535 x 18 m
Surface: asphalt, in good condition
Runway edge lights: non-standard
NSTD LIGHTING NOT L-800 SERIES.
Runway edge markings: NON-STANDARD MARKINGS: RY NUMBERS AND CNTRLNS.
Operational restrictions: NOT PLOWED WINTER; NO SKI OPNS.
RUNWAY 17  RUNWAY 35
Latitude: 41-57.467930N41-57.216732N
Longitude: 072-03.356710W072-03.164962W
Elevation: 771.5 ft.756.1 ft.
Gradient: 0.9% UP
Traffic pattern: leftleft
Markings: NSTD, in fair conditionNSTD, in fair condition
Obstructions: 28 ft. trees, 327 ft. from runway, 158 ft. both sides of centerline, 4:1 slope to clear
RY 17 HAS +6 FT BRUSH 50 FT FM THLD 40 FT L.
28 ft. trees, 201 ft. from runway, 20 ft. right of centerline, 1:1 slope to clear
+6 FT BUSH 20 FT FM THLD 15 FT L; +15 FT BRUSH 5 FT FM THLD 28 FT R.

Airport Ownership and Management from official FAA records

Ownership: Privately-owned
Owner: ROLAND J. TOUTANT
80 BUNGAY ROAD
WEST WOODSTOCK, CT 06281
Phone 860-974-2099
Manager: ROLAND J. TOUTANT
80 BUNGAY ROAD
WEST WOODSTOCK, CT 06281
Phone 860-974-2099

Airport Operational Statistics

Aircraft based on the field: 4
Single engine airplanes: 1
Helicopters: 2
Ultralights: 1
    
Aircraft operations: 200/year *
60% transient general aviation
40% local general aviation
* for 12-month period ending 31 March 2015

Additional Remarks

BE ALERT FOR BACK TAXIING AC ON RY.

Instrument Procedures

There are no published instrument procedures at C44.

Some nearby airports with instrument procedures:

3B0 - Southbridge Municipal Airport (9 nm N)
KLZD - Danielson Airport (11 nm SE)
KIJD - Windham Airport (14 nm SW)
KORH - Worcester Regional Airport (20 nm NE)
KSFZ - North Central State Airport (25 nm E)
 
Loc | Ops | Rwys | IFR | FBO | Links
Com | Nav | Svcs | Stats | Notes

Silver City Flying Club
 
Area around C44 (Toutant Airport)
 
Road maps at: MapQuest Bing Google
 
Aerial photo
WARNING: Photo may not be current or correct
Aerial photo of C44 (Toutant Airport)
Photo by Graeme J W Smith
Photo taken 06-Nov-2011
looking north.

Do you have a better or more recent aerial photo of Toutant Airport that you would like to share? If so, please send us your photo.

 
Sectional chart

 
Airport distance calculator
Flying to Toutant Airport? Find the distance to fly.

From to C44

Sunrise and sunset
Times for 20-Jul-2018
 Local
(UTC-4)
 Zulu
(UTC)
Morning civil twilight04:5808:58
Sunrise05:3109:31
Sunset20:1800:18
Evening civil twilight20:5100:51

Current date and time
Zulu (UTC)  20-Jul-2018 16:46:53
Local (UTC-4)  20-Jul-2018 12:46:53
 
METAR
KIJD 
14nm SW 
201552Z AUTO 00000KT 10SM 27/15 A3018 RMK AO2 SLP216 T02720150 $
KORH 
20nm NE 
201554Z VRB06KT 10SM CLR 26/11 A3021
KSFZ 
25nm E 
201556Z AUTO VRB03KT 10SM CLR 27/12 A3019 RMK AO2 SLP167 T02670122
KCEF 
25nm NW 
201356Z 00000KT 10SM FEW025 22/14 A3017 RMK AO2A SLP222 T02190138
TAF
KORH 
20nm NE 
201501Z 2015/2112 12004KT P6SM FEW040 FM201700 16004KT P6SM SKC FM210200 21006KT P6SM SKC FM210800 30004KT P6SM SKC
KCEF 
25nm NW 
201000Z 2010/2116 16006KT 9999 FEW050 QNH3012INS TEMPO 2010/2011 0800 FG BECMG 2023/2024 16006KT 9999 SCT030 QNH3010INS TX30/2020Z TN11/2010Z
NOTAMs
Click for the latest NOTAMs
NOTAMs are issued by the DoD/FAA and will open in a separate window not controlled by AirNav.

 

 
 

Would you like to see your business listed on this page?

 If your business provides an interesting product or service to pilots, flight crews, aircraft, or users of the Toutant Airport, you should consider listing it here.  To start the listing process, click on the button below
 
Add a business
 

Other Pages about Toutant Airport

Update a link
 
Copyright © AirNav, LLC. All rights reserved. Privacy Policy  Contact